Погода в Ступине

Россия / Воронежская область     51°58′19″N   39°22′49″E
темп.,
°C
ветер,
м/с
пор.,
м/с
влажн.,
%
обл.,
%
осадки,
мм/ч
давл.,
гПа
погр.,
м
19 июня, сб
сб1900:00+15всв310910 0.0 1025222
03:00+14в38950 0.0 1026156
06:00+17в26865 0.0 1026188
09:00+22вюв45635 0.0 1026664
12:00+24в45525 0.0 10261203
15:00+25вюв45480 0.0 10251228
18:00+23вюв34600 0.0 1024769
21:00+17в33820 0.0 102449
20 июня, вс
вс2000:00+15вюв23880 0.0 102553
03:00+14в23910 0.0 102546
06:00+16в26830 0.0 1024157
09:00+22в35600 0.0 1024583
12:00+25вюв4550100 0.0 10231100
15:00+26вюв4551100 0.0 10221245
18:00+25в3664100 0.0 1021760
21:00+19в3783100 0.0 1021117
21 июня, пн
пн2100:00+18в3881100 0.0 1021157
03:00+17в398470 0.0 1021162
06:00+19в3117988 0.0 1021290
09:00+24вюв4760100 0.0 1020472
12:00+28вюв464894 0.0 1020794
15:00+29вюв464814 0.0 10201079
18:00+28вюв47615 0.0 1019701
21:00+21в38885 0.0 1020132
22 июня, вт
вт2200:00+20вюв311865 0.0 1020209
03:00+18вюв39875 0.0 1020177
06:00+20вюв310794 0.0 1021259
09:00+26вюв475945 0.0 1021483
12:00+29вюв5651100 0.0 1020950
15:00+31вюв564941 0.0 10201445
18:00+29в366287 0.0 1020744
21:00+23в37825 0.0 1020120
23 июня, ср
ср2300:00+20в3781100 0.0 1020114
03:00+19всв37846 0.0 1020123
06:00+21всв39815 0.0 1020215
09:00+27в47605 0.0 1020498
12:00+31в454838 0.0 1020997
15:00+31вюв3448100 0.0 10191106
18:00+30в245926 0.0 1019521
21:00+24в22725 0.0 101914